Satellite: FIREBIRD FU3 Catalog number: 40377 Epoch time: 15036.89609323 Element set: 999 Inclination: 099.1258 deg RA of node: 046.3354 deg Eccentricity: 0.0165653 Arg of perigee: 322.8163 deg Mean anomaly: 036.1672 deg Mean motion: 15.04380824 rev/day Decay rate: 2.1933e-04 rev/day^2 Epoch rev: 79 Checksum: 317
Satellite: FIREBIRD FU4 Catalog number: 40378 Epoch time: 15036.56343620 Element set: 999 Inclination: 099.1273 deg RA of node: 045.9465 deg Eccentricity: 0.0167437 Arg of perigee: 323.3883 deg Mean anomaly: 035.5986 deg Mean motion: 15.04393335 rev/day Decay rate: 2.0951e-04 rev/day^2 Epoch rev: 74 Checksum: 326
Satellite: GRIFEX Catalog number: 40379 Epoch time: 15036.56375469 Element set: 999 Inclination: 099.1276 deg RA of node: 045.9463 deg Eccentricity: 0.0166485 Arg of perigee: 324.7733 deg Mean anomaly: 034.2533 deg Mean motion: 15.04280526 rev/day Decay rate: 1.7449e-04 rev/day^2 Epoch rev: 74 Checksum: 330
/EX
participants (1)
-
Ray Hoad